Salida, CO

10:55 PM MDT on June 23, 2017 (GMT -0600)
Salida

Weather History for KANK - June, 2014

Change the Weather History Date:

Thursday, June 5, 2014

  Actual Average (KGUC) Record (KGUC)
Temperature  
Mean Temperature 62 °F -  
Max Temperature 80 °F 69 °F 82 °F (2006)
Min Temperature 43 °F 35 °F 26 °F (1999)
Degree Days  
Heating Degree Days 4    
Growing Degree Days 12 (Base 50)    
Moisture  
Dew Point 29 °F    
Average Humidity 29    
Maximum Humidity 61    
Minimum Humidity 15    
Precipitation  
Precipitation 0.00 in - - ()
Sea Level Pressure  
Sea Level Pressure 30.20 in    
Wind  
Wind Speed 9 mph (SE)    
Max Wind Speed 25 mph    
Max Gust Speed 37 mph    
Visibility 10 miles    
Events      
Averages and records for this station are not official NWS values.
T = Trace of Precipitation, MM = Missing Value Source: NWS Daily Summary

Daily Weather History Graph

Daily Weather History Graph

Search for Another Location

Airport or City:

Trip Planner

Search our weather history database for the weather conditions in past years. The results will help you decide how hot, cold, wet, or windy it might be!

Date:

Astronomy

Jun. 05, 2014 Rise Set
Actual Time 5:40 AM MDT 8:25 PM MDT
Civil Twilight 5:09 AM MDT 8:56 PM MDT
Nautical Twilight 4:29 AM MDT 9:36 PM MDT
Astronomical Twilight 3:45 AM MDT 10:20 PM MDT
Moon 12:55 PM MDT (6/5) 12:58 AM MDT (6/5)
Length of Visible Light 15h 47m
Length of Day
14h 44m
Waxing Crescent, 49% of the Moon is Illuminated
Jun 5
Waxing Crescent
Jun 5
First Quarter
Jun 12
Full
Jun 19
Last Quarter
Jun 27
New

Hourly Weather History & Observations

Time (MDT) Temp. Windchill Dew Point Humidity Pressure Visibility Wind Dir Wind Speed Gust Speed Precip Events Conditions
12:15 AM 60.4 °F - 12.7 °F 15% 30.20 in 10.0 mi West 5.8 mph - N/A   Clear
12:35 AM 59.2 °F - 12.2 °F 16% 30.20 in 10.0 mi West 5.8 mph - N/A   Clear
12:55 AM 58.1 °F - 13.1 °F 17% 30.19 in 10.0 mi West 10.4 mph - N/A   Clear
1:15 AM 56.3 °F - 16.2 °F 21% 30.19 in 10.0 mi West 9.2 mph - N/A   Clear
1:35 AM 56.8 °F - 13.6 °F 18% 30.19 in 10.0 mi WNW 8.1 mph - N/A   Clear
1:55 AM 57.4 °F - 13.8 °F 18% 30.19 in 10.0 mi WNW 6.9 mph - N/A   Clear
2:15 AM 55.9 °F - 14.9 °F 20% 30.19 in 10.0 mi WSW 4.6 mph - N/A   Clear
2:35 AM 54.5 °F - 15.3 °F 21% 30.19 in 10.0 mi WNW 6.9 mph - N/A   Clear
2:55 AM 54.9 °F - 15.6 °F 21% 30.19 in 10.0 mi Calm Calm - N/A   Clear
3:15 AM 52.2 °F - 15.8 °F 24% 30.19 in 10.0 mi WSW 4.6 mph - N/A   Clear
3:35 AM 51.1 °F - 15.8 °F 25% 30.20 in 10.0 mi West 3.5 mph - N/A   Clear
3:55 AM 49.3 °F - 16.2 °F 27% 30.21 in 10.0 mi West 5.8 mph - N/A   Clear
4:15 AM 52.2 °F - 17.2 °F 25% 30.22 in 10.0 mi WNW 4.6 mph - N/A   Clear
4:35 AM 48.2 °F - 18.3 °F 31% 30.23 in 10.0 mi West 4.6 mph - N/A   Clear
4:55 AM 47.3 °F - 18.0 °F 31% 30.24 in 10.0 mi West 5.8 mph - N/A   Clear
5:15 AM 46.6 °F - 17.6 °F 32% 30.25 in 10.0 mi West 8.1 mph - N/A   Clear
5:35 AM 45.9 °F 44.6 °F 17.4 °F 32% 30.25 in 10.0 mi West 3.5 mph - N/A   Clear
5:55 AM 45.0 °F - 17.6 °F 33% 30.27 in 10.0 mi Calm Calm - N/A   Clear
6:15 AM 43.0 °F 41.3 °F 19.9 °F 40% 30.27 in 10.0 mi WSW 3.5 mph - N/A   Clear
6:35 AM 47.3 °F - 18.1 °F 31% 30.27 in 10.0 mi West 3.5 mph - N/A   Clear
6:55 AM 48.9 °F - 20.1 °F 32% 30.28 in 10.0 mi Calm Calm - N/A   Clear
7:15 AM 49.3 °F - 19.2 °F 30% 30.29 in 10.0 mi Calm Calm - N/A   Clear
7:35 AM 51.4 °F - 24.3 °F 35% 30.29 in 10.0 mi Calm Calm - N/A   Clear
7:55 AM 52.7 °F - 23.2 °F 32% 30.29 in 10.0 mi Calm Calm - N/A   Clear
8:35 AM 57.4 °F - 24.3 °F 28% 30.29 in 10.0 mi Calm Calm - N/A   Clear
8:55 AM 59.4 °F - 27.3 °F 29% 30.29 in 10.0 mi North 3.5 mph - N/A   Clear
9:15 AM 60.8 °F - 29.5 °F 31% 30.28 in 10.0 mi East 4.6 mph - N/A   Clear
9:35 AM 62.4 °F - 32.0 °F 32% 30.27 in 10.0 mi ESE 4.6 mph - N/A   Clear
9:55 AM 63.0 °F - 33.3 °F 33% 30.26 in 10.0 mi Calm Calm - N/A   Clear
10:15 AM 66.6 °F - 35.2 °F 31% 30.25 in 10.0 mi Calm Calm - N/A   Clear
10:35 AM 69.8 °F - 35.4 °F 28% 30.24 in 10.0 mi SE 6.9 mph - N/A   Clear
10:55 AM 71.2 °F - 32.9 °F 24% 30.23 in 10.0 mi ESE 11.5 mph - N/A   Clear
11:15 AM 72.1 °F - 32.7 °F 23% 30.22 in 10.0 mi East 11.5 mph 17.3 mph N/A   Clear
11:35 AM 73.0 °F - 31.8 °F 22% 30.21 in 10.0 mi East 13.8 mph 19.6 mph N/A   Clear
11:55 AM 75.2 °F - 31.6 °F 20% 30.20 in 10.0 mi ESE 12.7 mph 20.7 mph N/A   Clear
12:15 PM 75.7 °F - 32.0 °F 20% 30.20 in 10.0 mi ESE 12.7 mph 18.4 mph N/A   Clear
12:35 PM 76.8 °F - 32.4 °F 20% 30.19 in 10.0 mi East 13.8 mph 20.7 mph N/A   Clear
12:55 PM 77.2 °F - 32.0 °F 19% 30.19 in 10.0 mi ESE 13.8 mph 19.6 mph N/A   Clear
1:15 PM 78.8 °F - 31.6 °F 18% 30.18 in 10.0 mi ESE 11.5 mph 21.9 mph N/A   Clear
1:35 PM 78.6 °F - 32.4 °F 19% 30.17 in 10.0 mi ESE 16.1 mph 23.0 mph N/A   Clear
1:55 PM - - - N/A% 30.17 in 10.0 mi SE 11.5 mph 20.7 mph N/A   Clear
2:15 PM - - - N/A% 30.16 in 10.0 mi East 15.0 mph 23.0 mph N/A   Clear
2:35 PM - - - N/A% 30.15 in 10.0 mi ESE 12.7 mph - N/A   Clear
2:55 PM - - - N/A% 30.15 in 10.0 mi SE 12.7 mph 18.4 mph N/A   Clear
3:15 PM 80.4 °F - 33.6 °F 18% 30.14 in 10.0 mi ESE 18.4 mph 25.3 mph N/A   Clear
3:35 PM 80.1 °F - 33.1 °F 18% 30.14 in 10.0 mi ESE 17.3 mph 24.2 mph N/A   Clear
3:55 PM - - - N/A% 30.13 in 10.0 mi ESE 17.3 mph 24.2 mph N/A   Clear
4:15 PM - - - N/A% 30.13 in 10.0 mi SE 12.7 mph 21.9 mph N/A   Clear
4:35 PM - - - N/A% 30.12 in 10.0 mi ESE 18.4 mph 21.9 mph N/A   Clear
4:55 PM 79.5 °F - 34.0 °F 19% 30.12 in 10.0 mi ESE 15.0 mph 24.2 mph N/A   Scattered Clouds
5:15 PM 76.5 °F - 34.9 °F 22% 30.13 in 10.0 mi East 10.4 mph 18.4 mph N/A   Clear
5:35 PM 77.2 °F - 34.7 °F 21% 30.12 in 10.0 mi ESE 16.1 mph 25.3 mph N/A   Clear
5:55 PM 77.2 °F - 35.8 °F 22% 30.12 in 10.0 mi ESE 19.6 mph 27.6 mph N/A   Clear
6:15 PM 77.0 °F - 35.8 °F 22% 30.12 in 10.0 mi ESE 17.3 mph 26.5 mph N/A   Clear
6:35 PM 75.9 °F - 36.1 °F 24% 30.12 in 10.0 mi ESE 16.1 mph 29.9 mph N/A   Clear
6:55 PM 74.1 °F - 36.3 °F 25% 30.12 in 10.0 mi ESE 21.9 mph 27.6 mph N/A   Clear
7:15 PM 73.4 °F - 36.1 °F 26% 30.13 in 10.0 mi ESE 19.6 mph 31.1 mph N/A   Clear
7:35 PM 72.9 °F - 36.0 °F 26% 30.14 in 10.0 mi ESE 18.4 mph 28.8 mph N/A   Clear
7:55 PM 71.6 °F - 36.0 °F 27% 30.14 in 10.0 mi SE 19.6 mph 29.9 mph N/A   Clear
8:15 PM 70.9 °F - 36.5 °F 28% 30.15 in 10.0 mi ESE 25.3 mph 32.2 mph N/A   Clear
8:35 PM 70.0 °F - 37.2 °F 30% 30.15 in 10.0 mi SE 24.2 mph 31.1 mph N/A   Clear
8:55 PM 69.1 °F - 39.2 °F 34% 30.16 in 10.0 mi SE 20.7 mph 31.1 mph N/A   Clear
9:15 PM 68.5 °F - 41.0 °F 37% 30.17 in 10.0 mi ESE 25.3 mph 34.5 mph N/A   Clear
9:35 PM 67.5 °F - 43.5 °F 42% 30.17 in 10.0 mi ESE 23.0 mph 29.9 mph N/A   Clear
9:55 PM 66.4 °F - 46.4 °F 49% 30.20 in 10.0 mi ESE 17.3 mph 36.8 mph N/A   Clear
10:15 PM - - - N/A% 30.21 in 10.0 mi ESE 23.0 mph 31.1 mph N/A   Clear
10:35 PM 63.3 °F - 46.8 °F 55% 30.21 in 10.0 mi ESE 16.1 mph 31.1 mph N/A   Clear
10:55 PM 61.9 °F - 46.6 °F 57% 30.22 in 10.0 mi ESE 19.6 mph 25.3 mph N/A   Clear
11:15 PM 61.2 °F - 46.4 °F 58% 30.23 in 10.0 mi ESE 16.1 mph 24.2 mph N/A   Clear
11:35 PM 60.4 °F - 46.4 °F 60% 30.24 in 10.0 mi ESE 19.6 mph 24.2 mph N/A   Clear
11:55 PM 59.9 °F - 46.4 °F 61% 30.24 in 10.0 mi ESE 13.8 mph 25.3 mph N/A   Scattered Clouds